Flag for New Zealand Weather past 2 weeks in Hamilton, New Zealand

Now
54 °F

Sprinkles. Broken clouds.


Feels Like: 48 °F
Forecast: 49 / 56 °F
Wind: 22 mph from Southwest

Location: Auckland Airport

Current Time: May 26, 2015 at 10:22:20 AM

Latest Report: May 26, 2015 at 9:30 AM


Visibility: N/A

Pressure: 29.98 "Hg

Humidity: 77%

Dew point: 46 °F

Location of HamiltonLocation

Historic Weather in Hamilton — Graph

°F

Hamilton temperature yesterday

Maximum temperature yesterday: 57 °F (at 12:00 AM)
Minimum temperature yesterday: 48 °F (at 5:00 PM)
Average temperature yesterday: 54 °F

Past Weeks' High & Low Weather Summary

 TemperatureHumidityPressure
High68 °F (May 11, 1:00 PM)100% (May 11, 8:00 AM)30.21 "Hg (May 11, 8:00 AM)
Low45 °F (May 20, 7:00 AM)47% (May 25, 12:30 PM)29.15 "Hg (May 23, 6:30 PM)
Average57 °F82%29.85 "Hg
* Reported May 11 8:00 AM — May 26 8:30 AM, Hamilton, Weather by CustomWeather, © 2015

Note: Actual official high and low records may vary slightly from our data, if they occured in-between our weather recording intervals... More about our weather records

Advertising

Hamilton weather history for previous 24 hours

 ConditionsComfort  
Time TempWeatherWind HumidityBarometerVisibility
8:30 AM
Tue, May 26
54 °FLight rain. Partly sunny.21 mph77%29.95 "HgN/A
8:00 AM54 °FPassing clouds.17 mph72%29.95 "HgN/A
7:30 AM54 °FPassing clouds.22 mph77%29.95 "HgN/A
7:00 AM54 °FSprinkles. Partly sunny.23 mph77%29.95 "HgN/A
6:30 AM54 °FBroken clouds.28 mph67%29.95 "HgN/A
6:00 AM54 °FPartly cloudy.21 mph77%29.92 "HgN/A
5:30 AM52 °FSprinkles. Partly cloudy.25 mph88%29.92 "Hg3 mi
5:00 AM54 °FPassing clouds.25 mph72%29.92 "HgN/A
4:30 AM54 °FLight rain. Passing clouds.28 mph77%29.92 "HgN/A
4:00 AM55 °FOvercast.24 mph63%29.92 "HgN/A
3:30 AM54 °FPassing clouds.25 mph67%29.92 "HgN/A
3:00 AM54 °FPartly cloudy.23 mph72%29.92 "HgN/A
2:30 AM54 °FPassing clouds.28 mph72%29.92 "HgN/A
2:00 AM54 °FPassing clouds.21 mph82%29.92 "HgN/A
1:30 AM54 °FPartly cloudy.23 mph72%29.92 "HgN/A
1:00 AM52 °FSprinkles. Passing clouds.25 mph82%29.92 "Hg4 mi
12:30 AM54 °FSprinkles. Passing clouds.25 mph72%29.92 "HgN/A
12:00 AM54 °FPassing clouds.23 mph72%29.92 "HgN/A
11:30 PM
Mon, May 25
52 °FPartly cloudy.20 mph77%29.92 "HgN/A
11:00 PM54 °FPassing clouds.23 mph67%29.92 "HgN/A
10:30 PM54 °FPartly cloudy.22 mph67%29.92 "HgN/A
10:00 PM54 °FPassing clouds.23 mph63%29.92 "HgN/A
9:30 PM54 °FPartly cloudy.22 mph72%29.89 "HgN/A
9:00 PM52 °FPartly cloudy.21 mph72%29.89 "HgN/A
8:30 PM52 °FSprinkles. Partly cloudy.24 mph77%29.89 "HgN/A
8:00 PM52 °FPassing clouds.22 mph77%29.89 "HgN/A
7:30 PM52 °FSprinkles. Partly cloudy.26 mph72%29.89 "HgN/A
7:00 PM50 °FSprinkles. Partly cloudy.30 mph82%29.89 "HgN/A
6:30 PM50 °FSprinkles. Passing clouds.31 mph82%29.86 "Hg3 mi
6:00 PM52 °FSprinkles. Partly cloudy.29 mph82%29.86 "Hg6 mi
5:30 PM50 °FSprinkles. Partly cloudy.24 mph76%29.83 "HgN/A
5:00 PM48 °FRain. Partly cloudy.30 mph87%29.86 "Hg2 mi
4:30 PM50 °FLight rain. Passing clouds.32 mph76%29.83 "Hg4 mi
3:30 PM52 °FBroken clouds.28 mph72%29.86 "HgN/A
3:00 PM52 °FSprinkles. Broken clouds.25 mph72%29.83 "Hg6 mi
2:30 PM54 °FScattered clouds.33 mph63%29.83 "HgN/A
2:00 PM55 °FLight rain. Broken clouds.31 mph59%29.83 "HgN/A
1:30 PM57 °FPartly sunny.26 mph51%29.80 "HgN/A
1:00 PM57 °FPartly sunny.28 mph51%29.80 "HgN/A
12:30 PM55 °FBroken clouds.35 mph47%29.80 "HgN/A
12:00 PM55 °FPartly sunny.29 mph55%29.80 "HgN/A
11:30 AM55 °FCloudy.28 mph55%29.83 "HgN/A
11:00 AM54 °FBroken clouds.31 mph58%29.83 "HgN/A
10:30 AM52 °FSprinkles. Broken clouds.35 mph77%29.80 "Hg1 mi
10:00 AM52 °FLight rain. Mostly cloudy.28 mph77%29.80 "Hg5 mi
Weather by CustomWeather, © 2015

See weather overviewHow to use our weather pages